FW4624 Weather Reports


time (UTC)temp
C
wind
direction
speed
KPH
gust
KPH
rain 1hr
cm
rain 24hr
cm
rain mn
cm
humidity
%
barometer
mb
20260906103516 20 225 0.0 6.4 0.00 0.00 0.00 53 1028.4
20260906103018 20 222 3.2 9.7 0.00 0.00 0.00 55 1028.4
20260906102515 20 247 4.8 11.3 0.00 0.00 0.00 55 1028.4
20260906102016 20 238 3.2 11.3 0.00 0.00 0.00 55 1028.5
20260906101526 20 272 1.6 6.4 0.00 0.00 0.00 54 1028.6
20260906101014 20 211 0.0 6.4 0.00 0.00 0.00 57 1028.6
20260906100514 19 208 0.0 9.7 0.00 0.00 0.00 57 1028.7
20260906100013 20 208 3.2 9.7 0.00 0.00 0.00 57 1028.7
20260906095512 19 207 3.2 8.0 0.00 0.00 0.00 59 1028.8
20260906095014 19 218 3.2 6.4 0.00 0.00 0.00 61 1028.8
20260906094511 18 214 0.0 6.4 0.00 0.00 0.00 61 1029.0
20260906094010 18 214 3.2 8.0 0.00 0.00 0.00 63 1029.0
20260906093513 18 215 1.6 8.0 0.00 0.00 0.00 63 1029.0
20260906093010 19 228 1.6 8.0 0.00 0.00 0.00 64 1029.0
20260906092511 18 153 1.6 8.0 0.00 0.00 0.00 63 1029.0
20260906092009 18 153 1.6 4.8 0.00 0.00 0.00 65 1029.1
20260906091508 18 153 0.0 4.8 0.00 0.00 0.00 65 1028.9
20260906091008 17 153 1.6 8.0 0.00 0.00 0.00 65 1028.9
20260906090508 17 153 1.6 8.0 0.00 0.00 0.00 67 1028.9
20260906090007 18 153 1.6 8.0 0.00 0.00 0.00 68 1028.9
20260906085506 17 116 1.6 6.4 0.00 0.00 0.00 67 1028.9
20260906085005 17 109 1.6 6.4 0.00 0.00 0.00 66 1029.0
20260906084504 17 106 1.6 9.7 0.00 0.00 0.00 69 1029.0
20260906084008 16 103 1.6 9.7 0.00 0.00 0.00 69 1029.0
20260906083503 16 90 1.6 9.7 0.00 0.00 0.00 73 1029.0
20260906083002 16 91 1.6 11.3 0.00 0.00 0.00 73 1029.1
20260906082502 16 92 4.8 11.3 0.00 0.00 0.00 72 1029.1
20260906082002 16 348 0.0 6.4 0.00 0.00 0.00 73 1029.1
20260906081600 16 347 1.6 8.0 0.00 0.00 0.00 75 1029.2
20260906081059 16 347 3.2 8.0 0.00 0.00 0.00 75 1029.1
20260906080558 15 347 0.0 8.0 0.00 0.00 0.00 76 1029.2
20260906080057 15 346 1.6 8.0 0.00 0.00 0.00 77 1029.1
20260906075556 15 347 3.2 4.8 0.00 0.00 0.00 76 1029.2
20260906075054 15 346 1.6 8.0 0.00 0.00 0.00 79 1029.1
20260906074554 15 346 4.8 8.0 0.00 0.00 0.00 79 1029.1
20260906074053 15 346 0.0 4.8 0.00 0.00 0.00 81 1029.1
20260906073553 14 345 1.6 6.4 0.00 0.00 0.00 82 1029.1
20260906073051 14 342 3.2 6.4 0.00 0.00 0.00 82 1029.1
20260906072552 14 341 0.0 6.4 0.00 0.00 0.00 84 1029.0
20260906072050 13 341 3.2 6.4 0.00 0.00 0.00 84 1029.0
20260906071550 13 340 3.2 6.4 0.00 0.00 0.00 85 1029.1
20260906071049 13 264 0.0 4.8 0.00 0.00 0.00 86 1029.0
20260906070548 13 263 0.0 3.2 0.00 0.00 0.00 87 1029.0
20260906070048 13 263 0.0 3.2 0.00 0.00 0.00 88 1029.0
20260906065548 12 263 0.0 3.2 0.00 0.00 0.00 90 1029.0
20260906065046 12 263 0.0 3.2 0.00 0.00 0.00 90 1029.1
20260906064547 11 263 0.0 3.2 0.00 0.00 0.00 91 1029.1
20260906064046 11 263 0.0 3.2 0.00 0.00 0.00 91 1029.1
20260906063549 11 264 0.0 0.0 0.00 0.00 0.00 92 1029.3
20260906063046 11 264 0.0 0.0 0.00 0.00 0.00 92 1029.3
20260906062545 11 264 0.0 1.6 0.00 0.00 0.00 93 1029.3
20260906062045 10 264 0.0 3.2 0.00 0.00 0.00 93 1029.2
20260906061546 10 264 0.0 3.2 0.00 0.00 0.00 93 1029.2
20260906061045 10 264 0.0 1.6 0.00 0.00 0.00 93 1029.2
20260906060547 10 264 0.0 1.6 0.00 0.00 0.00 94 1029.1
20260906060044 9 264 0.0 0.0 0.00 0.00 0.00 94 1029.1
20260906055543 9 264 0.0 0.0 0.00 0.00 0.00 94 1029.1
20260906055043 8 264 0.0 0.0 0.00 0.00 0.00 94 1029.0
20260906054547 8 264 0.0 1.6 0.00 0.00 0.00 94 1029.0
20260906054044 8 264 0.0 4.8 0.00 0.00 0.00 93 1028.8
20260906053541 8 264 1.6 4.8 0.00 0.00 0.00 94 1028.7
20260906053044 8 263 0.0 0.0 0.00 0.00 0.00 94 1028.8
20260906052544 7 263 0.0 0.0 0.00 0.00 0.00 93 1028.8
20260906052041 7 263 0.0 0.0 0.00 0.00 0.00 93 1028.8
20260906051539 7 263 0.0 0.0 0.00 0.00 0.00 93 1028.7
20260906051039 7 263 0.0 0.0 0.00 0.00 0.00 93 1028.6
20260906050541 7 263 0.0 0.0 0.00 0.00 0.00 93 1028.5
20260906050041 7 263 0.0 0.0 0.00 0.00 0.00 93 1028.5
20260906045537 8 263 0.0 0.0 0.00 0.00 0.00 93 1028.4
20260906045039 8 263 0.0 0.0 0.00 0.00 0.00 93 1028.4
20260906044537 8 263 0.0 0.0 0.00 0.00 0.00 93 1028.5
20260906044037 7 263 0.0 0.0 0.00 0.00 0.00 93 1028.5
20260906043536 7 263 0.0 0.0 0.00 0.00 0.00 93 1028.4
20260906043035 8 263 0.0 0.0 0.00 0.00 0.00 93 1028.2
20260906042534 8 263 0.0 0.0 0.00 0.00 0.00 93 1028.2
20260906042036 7 263 0.0 0.0 0.00 0.00 0.00 93 1028.0
20260906041535 8 263 0.0 0.0 0.00 0.00 0.00 93 1028.3
20260906041033 8 263 0.0 0.0 0.00 0.00 0.00 93 1028.3
20260906040533 7 263 0.0 0.0 0.00 0.00 0.00 93 1028.2
20260906040038 8 263 0.0 0.0 0.00 0.00 0.00 93 1028.1
20260906035532 8 263 0.0 0.0 0.00 0.00 0.00 93 1028.1
20260906035031 8 263 0.0 0.0 0.00 0.00 0.00 93 1028.0
20260906034540 8 263 0.0 0.0 0.00 0.00 0.00 93 1028.1
20260906034032 8 263 0.0 0.0 0.00 0.00 0.00 92 1028.2
20260906033529 8 263 0.0 0.0 0.00 0.00 0.00 93 1028.0
20260906033030 8 263 0.0 0.0 0.00 0.00 0.00 93 1028.0
20260906032533 8 263 0.0 0.0 0.00 0.00 0.00 93 1028.0
20260906032028 8 263 0.0 0.0 0.00 0.00 0.00 93 1028.0
20260906031532 8 263 0.0 0.0 0.00 0.00 0.00 92 1027.9
20260906031029 9 263 0.0 0.0 0.00 0.00 0.00 93 1027.9
20260906030528 9 263 0.0 3.2 0.00 0.00 0.00 93 1027.9
20260906030027 9 263 0.0 3.2 0.00 0.00 0.00 93 1028.1
20260906025529 9 263 0.0 3.2 0.00 0.00 0.00 93 1028.1
20260906025028 8 263 0.0 0.0 0.00 0.00 0.00 92 1028.1
20260906024526 8 263 0.0 0.0 0.00 0.00 0.00 92 1028.0
20260906024024 9 263 0.0 0.0 0.00 0.00 0.00 92 1028.0
20260906023526 10 263 0.0 0.0 0.00 0.00 0.00 92 1028.1
20260906023022 10 263 0.0 0.0 0.00 0.00 0.00 92 1027.9
20260906022522 10 263 0.0 0.0 0.00 0.00 0.00 92 1027.9
20260906022022 10 263 0.0 0.0 0.00 0.00 0.00 92 1027.9
20260906021522 9 263 0.0 0.0 0.00 0.00 0.00 91 1028.0
20260906021024 10 263 0.0 1.6 0.00 0.00 0.00 91 1027.9
20260906020521 10 263 0.0 4.8 0.00 0.00 0.00 91 1027.9
20260906020021 10 263 1.6 4.8 0.00 0.00 0.00 91 1027.8
20260906015520 10 266 0.0 3.2 0.00 0.00 0.00 92 1027.9
20260906015020 10 266 0.0 3.2 0.00 0.00 0.00 92 1027.8
20260906014523 10 266 0.0 3.2 0.00 0.00 0.00 92 1027.9
20260906014019 10 266 0.0 1.6 0.00 0.00 0.00 92 1027.8
20260906013518 10 266 0.0 1.6 0.00 0.00 0.00 92 1027.7
20260906013026 10 266 0.0 0.0 0.00 0.00 0.00 92 1027.6
20260906012517 10 266 0.0 0.0 0.00 0.00 0.00 91 1027.7
20260906012017 9 266 0.0 0.0 0.00 0.00 0.00 91 1027.6
20260906011520 10 266 0.0 0.0 0.00 0.00 0.00 91 1027.6
20260906011016 10 266 0.0 0.0 0.00 0.00 0.00 91 1027.6
20260906010515 10 266 0.0 0.0 0.00 0.00 0.00 91 1027.6
20260906010016 10 266 0.0 1.6 0.00 0.00 0.00 91 1027.6
20260906005518 10 266 0.0 1.6 0.00 0.05 0.00 90 1027.6
20260906005013 10 266 0.0 3.2 0.00 0.05 0.00 90 1027.4
20260906004511 11 266 0.0 4.8 0.00 0.05 0.00 90 1027.4
20260906004014 11 266 1.6 4.8 0.00 0.05 0.00 90 1027.3
20260906003511 11 266 0.0 0.0 0.00 0.05 0.00 89 1027.4
20260906003011 11 266 0.0 0.0 0.00 0.05 0.00 89 1027.5
20260906002510 11 266 0.0 3.2 0.00 0.05 0.00 88 1027.4
20260906002009 11 266 0.0 3.2 0.00 0.05 0.00 87 1027.4
20260906001508 11 266 1.6 3.2 0.00 0.05 0.00 86 1027.3
20260906001007 12 266 0.0 0.0 0.00 0.05 0.00 85 1027.4
20260906000507 12 267 0.0 3.2 0.00 0.05 0.00 86 1027.4
20260906000007 12 267 1.6 3.2 0.00 0.05 0.00 86 1027.4
20260905235506 12 266 0.0 0.0 0.00 0.05 0.00 86 1027.4
20260905235006 12 267 0.0 0.0 0.00 0.05 0.00 86 1027.5
20260905234505 12 267 0.0 1.6 0.00 0.05 0.00 86 1027.4
20260905234005 12 266 0.0 3.2 0.00 0.05 0.00 85 1027.4
20260905233505 12 266 0.0 3.2 0.00 0.05 0.00 85 1027.3
20260905233012 12 266 1.6 3.2 0.00 0.05 0.00 87 1027.3
20260905232507 12 267 0.0 0.0 0.00 0.05 0.00 86 1027.4
20260905232004 12 267 0.0 0.0 0.00 0.05 0.00 86 1027.3
20260905231503 12 266 0.0 1.6 0.00 0.05 0.00 85 1027.2
20260905231002 12 267 0.0 4.8 0.00 0.05 0.00 85 1027.1
20260905230502 12 266 1.6 4.8 0.00 0.05 0.00 85 1027.1
20260905230002 12 266 0.0 0.0 0.00 0.05 0.00 86 1027.0
20260905225501 12 266 0.0 1.6 0.00 0.08 0.00 86 1027.2
20260905225001 12 266 0.0 6.4 0.00 0.08 0.00 86 1027.1
20260905224501 12 264 0.0 6.4 0.00 0.08 0.00 85 1027.1
20260905224100 12 263 0.0 0.0 0.00 0.08 0.00 85 1027.1
20260905223559 12 263 0.0 0.0 0.00 0.08 0.00 84 1027.0
20260905223059 12 263 0.0 4.8 0.00 0.08 0.00 85 1027.0
20260905222600 12 263 0.0 0.0 0.00 0.08 0.00 85 1026.9
20260905222100 12 263 0.0 1.6 0.00 0.08 0.00 85 1026.8
20260905221601 12 263 0.0 3.2 0.00 0.08 0.00 84 1026.8
20260905221059 12 263 0.0 3.2 0.00 0.08 0.00 84 1026.7
20260905220555 12 263 0.0 1.6 0.00 0.08 0.00 85 1026.7
20260905220055 12 263 0.0 0.0 0.00 0.08 0.00 85 1026.7
20260905215554 12 263 0.0 0.0 0.00 0.10 0.08 84 1026.6
20260905215057 13 263 0.0 1.6 0.00 0.10 0.08 83 1026.4
20260905214550 13 263 0.0 1.6 0.00 0.10 0.08 82 1026.4
20260905214049 13 263 0.0 4.8 0.00 0.10 0.08 81 1026.4
20260905213549 13 263 1.6 4.8 0.00 0.10 0.08 81 1026.2
20260905213048 13 263 0.0 0.0 0.00 0.10 0.08 81 1026.2
20260905212548 13 263 0.0 0.0 0.00 0.10 0.08 81 1026.1
20260905212047 13 263 0.0 0.0 0.00 0.10 0.08 81 1026.0
20260905211554 13 263 0.0 0.0 0.00 0.10 0.08 80 1026.0
20260905211047 13 263 0.0 0.0 0.00 0.10 0.08 80 1025.9
20260905210546 13 263 0.0 0.0 0.00 0.10 0.08 80 1025.9
20260905210047 14 263 0.0 0.0 0.00 0.10 0.08 79 1025.8
20260905205546 14 263 0.0 0.0 0.00 0.15 0.08 79 1025.9
20260905205047 14 263 0.0 0.0 0.00 0.15 0.08 77 1025.9
20260905204545 15 263 0.0 0.0 0.00 0.15 0.08 78 1025.9
20260905204045 15 263 0.0 0.0 0.00 0.15 0.08 77 1025.8
20260905203548 15 263 0.0 0.0 0.00 0.15 0.08 77 1025.8
20260905203052 15 263 0.0 1.6 0.00 0.15 0.08 76 1025.7
20260905202543 15 263 0.0 0.0 0.00 0.15 0.08 75 1025.7
20260905202042 15 263 0.0 0.0 0.00 0.15 0.08 74 1025.6
20260905201542 15 263 0.0 0.0 0.00 0.15 0.08 73 1025.6
20260905201041 16 263 0.0 3.2 0.00 0.15 0.08 72 1025.5
20260905200541 16 263 0.0 3.2 0.00 0.15 0.08 72 1025.4
20260905200041 16 263 0.0 1.6 0.00 0.15 0.08 71 1025.4
20260905195540 16 263 0.0 3.2 0.00 0.28 0.08 70 1025.1
20260905195044 16 263 0.0 3.2 0.00 0.28 0.08 69 1025.2
20260905194539 16 263 1.6 3.2 0.00 0.28 0.08 68 1025.2
20260905194038 17 263 1.6 3.2 0.00 0.28 0.08 68 1025.0
20260905193538 17 263 0.0 4.8 0.00 0.28 0.08 67 1025.0
20260905193055 17 263 1.6 6.4 0.00 0.28 0.08 66 1025.1
20260905192538 17 263 0.0 6.4 0.00 0.28 0.08 66 1025.0
20260905192038 17 252 1.6 4.8 0.00 0.28 0.08 65 1025.0
20260905191541 17 252 0.0 3.2 0.00 0.28 0.08 65 1025.0
20260905191037 17 252 0.0 3.2 0.00 0.28 0.08 65 1024.9
20260905190536 17 252 0.0 3.2 0.00 0.28 0.08 64 1024.8
20260905190037 17 252 0.0 3.2 0.00 0.28 0.08 64 1024.8
20260905185537 17 252 1.6 4.8 0.00 0.28 0.08 64 1024.8
20260905185037 18 252 0.0 11.3 0.00 0.28 0.08 64 1024.7
20260905184536 17 251 1.6 11.3 0.00 0.28 0.08 64 1024.7
20260905184035 17 323 0.0 0.0 0.00 0.28 0.08 65 1024.7
20260905183535 18 323 0.0 0.0 0.00 0.28 0.08 64 1024.7
20260905183034 18 323 0.0 0.0 0.00 0.28 0.08 63 1024.8
20260905182537 18 323 0.0 0.0 0.00 0.28 0.08 63 1024.6
20260905182034 18 323 0.0 0.0 0.00 0.28 0.08 61 1024.4
20260905181533 18 323 0.0 1.6 0.00 0.28 0.08 60 1024.4
20260905181032 18 323 0.0 3.2 0.00 0.28 0.08 60 1024.4
20260905180532 18 323 0.0 3.2 0.00 0.28 0.08 60 1024.3
20260905180032 19 323 0.0 3.2 0.00 0.28 0.08 60 1024.2
20260905175530 19 323 0.0 4.8 0.00 0.28 0.08 58 1024.2
20260905175030 19 323 0.0 4.8 0.00 0.28 0.08 57 1024.1
20260905174530 19 323 0.0 3.2 0.00 0.28 0.08 57 1024.0
20260905174029 20 323 0.0 3.2 0.00 0.28 0.08 56 1024.0
20260905173529 20 323 0.0 3.2 0.00 0.28 0.08 56 1024.0
20260905173029 20 323 0.0 4.8 0.00 0.28 0.08 55 1024.0
20260905172528 20 323 1.6 4.8 0.00 0.28 0.08 54 1023.9
20260905172028 20 323 0.0 4.8 0.00 0.28 0.08 54 1024.0
20260905171534 20 323 1.6 6.4 0.00 0.28 0.08 53 1023.9
20260905171027 21 322 1.6 6.4 0.00 0.28 0.08 52 1023.9
20260905170527 21 333 1.6 9.7 0.00 0.28 0.08 52 1023.8
20260905170027 21 313 3.2 12.9 0.00 0.28 0.08 51 1023.9
20260905165527 21 271 3.2 11.3 0.00 0.28 0.08 51 1023.8
20260905165028 21 300 3.2 14.5 0.00 0.28 0.08 51 1023.9
20260905164527 21 275 3.2 19.3 0.00 0.28 0.08 50 1023.9
20260905164026 21 275 3.2 19.3 0.00 0.28 0.08 50 1023.8
20260905163530 21 270 3.2 6.4 0.00 0.28 0.08 49 1023.6
20260905163025 22 284 3.2 12.9 0.00 0.28 0.08 49 1023.5
20260905162525 22 284 1.6 12.9 0.00 0.28 0.08 50 1023.5
20260905162024 22 333 1.6 12.9 0.00 0.28 0.08 48 1023.5
20260905161524 22 311 3.2 14.5 0.00 0.28 0.08 48 1023.5
20260905161024 22 311 4.8 17.7 0.00 0.28 0.08 47 1023.5
20260905160523 22 340 4.8 17.7 0.00 0.28 0.08 48 1023.3
20260905160028 22 303 3.2 11.3 0.00 0.28 0.08 46 1023.3
20260905155525 22 263 3.2 11.3 0.00 0.28 0.08 46 1023.2
20260905155026 22 325 1.6 8.0 0.00 0.28 0.08 48 1023.3
20260905154623 22 326 3.2 8.0 0.00 0.28 0.08 47 1023.4
20260905154022 22 319 1.6 16.1 0.00 0.28 0.08 48 1023.3
20260905153522 22 342 4.8 20.9 0.00 0.28 0.08 49 1023.3
20260905153024 22 338 8.0 20.9 0.00 0.28 0.08 48 1023.2
20260905152522 23 341 3.2 17.7 0.00 0.28 0.08 46 1023.2
20260905152024 23 339 3.2 12.9 0.00 0.28 0.08 46 1023.2
20260905151522 23 256 1.6 14.5 0.00 0.28 0.08 46 1023.2
20260905151020 23 259 3.2 11.3 0.00 0.28 0.08 45 1023.2
20260905150521 23 267 3.2 14.5 0.00 0.28 0.08 46 1023.1
20260905150021 23 259 3.2 14.5 0.00 0.28 0.08 45 1023.1
20260905145523 23 313 4.8 16.1 0.00 0.28 0.08 44 1023.1
20260905145020 23 306 4.8 16.1 0.00 0.28 0.08 44 1023.1
20260905144520 23 309 3.2 17.7 0.00 0.28 0.08 46 1023.0
20260905144019 23 258 3.2 19.3 0.00 0.28 0.08 46 1023.1
20260905143519 23 286 6.4 19.3 0.00 0.28 0.08 46 1023.0
20260905143021 23 263 3.2 14.5 0.00 0.28 0.08 48 1023.0
20260905142519 22 272 6.4 14.5 0.00 0.28 0.08 47 1023.0
20260905142020 22 309 3.2 19.3 0.00 0.28 0.08 48 1023.0
20260905141519 21 318 4.8 19.3 0.00 0.28 0.08 51 1023.1
20260905141023 21 351 1.6 12.9 0.00 0.28 0.08 51 1023.0
20260905140522 21 287 3.2 16.1 0.00 0.28 0.08 50 1023.0
20260905140018 22 306 3.2 12.9 0.00 0.28 0.08 49 1023.0
20260905135519 22 291 3.2 29.0 0.00 0.28 0.08 47 1023.0
20260905135018 23 240 4.8 29.0 0.00 0.28 0.08 47 1022.9
20260905134516 23 281 8.0 14.5 0.00 0.28 0.08 45 1022.9
20260905134016 22 265 8.0 24.1 0.00 0.28 0.08 47 1022.8
20260905133521 22 265 4.8 24.1 0.00 0.28 0.08 48 1022.9
20260905133016 22 329 3.2 12.9 0.00 0.28 0.08 46 1022.9
20260905132516 22 302 4.8 19.3 0.00 0.28 0.08 46 1022.9
20260905132016 22 330 3.2 19.3 0.00 0.28 0.08 47 1022.9
20260905131516 23 272 4.8 20.9 0.00 0.28 0.08 46 1022.8
20260905131015 23 336 4.8 20.9 0.00 0.28 0.08 46 1022.8
20260905130517 22 267 8.0 24.1 0.00 0.28 0.08 46 1022.7
20260905130014 23 261 9.7 24.1 0.00 0.28 0.08 47 1022.7
20260905125514 23 325 3.2 12.9 0.00 0.28 0.08 47 1022.7
20260905125017 22 317 4.8 14.5 0.00 0.28 0.08 47 1022.7
20260905124519 23 338 6.4 25.7 0.00 0.28 0.08 45 1022.7
20260905124013 22 344 8.0 25.7 0.00 0.28 0.08 49 1022.6
20260905123513 23 281 4.8 19.3 0.00 0.28 0.08 49 1022.5
20260905123013 23 263 3.2 16.1 0.00 0.28 0.08 46 1022.5
20260905122515 23 321 3.2 22.5 0.00 0.28 0.08 48 1022.5
20260905122014 23 302 4.8 24.1 0.00 0.28 0.08 50 1022.5
20260905121512 23 276 9.7 32.2 0.00 0.28 0.08 48 1022.4
20260905121013 23 306 3.2 20.9 0.00 0.28 0.08 49 1022.6
20260905120512 22 265 6.4 20.9 0.00 0.28 0.08 48 1022.5
20260905120018 23 286 3.2 22.5 0.00 0.28 0.08 48 1022.5
20260905115511 22 260 4.8 22.5 0.00 0.28 0.08 48 1022.4
20260905115011 22 287 3.2 22.5 0.00 0.28 0.08 49 1022.5
20260905114510 23 278 3.2 22.5 0.00 0.28 0.08 50 1022.6
20260905114009 23 259 4.8 22.5 0.00 0.28 0.08 50 1022.6
20260905113508 22 258 4.8 24.1 0.00 0.28 0.08 50 1022.5
20260905113011 23 328 4.8 12.9 0.00 0.28 0.08 51 1022.5
20260905112509 22 262 3.2 17.7 0.00 0.28 0.08 54 1022.4
20260905112007 22 271 3.2 19.3 0.00 0.28 0.08 54 1022.5
20260905111505 22 253 6.4 25.7 0.00 0.28 0.08 56 1022.6
20260905111010 21 248 6.4 25.7 0.00 0.28 0.08 59 1022.5
20260905110504 22 253 8.0 19.3 0.00 0.28 0.08 55 1022.7
20260905110005 22 261 3.2 17.7 0.00 0.28 0.08 56 1022.5
20260905105505 21 262 6.4 27.4 0.00 0.28 0.08 58 1022.6
20260905105004 21 261 4.8 27.4 0.00 0.28 0.08 57 1022.6
20260905104502 21 271 11.3 20.9 0.00 0.28 0.08 57 1022.4
20260905104002 20 246 4.8 14.5 0.00 0.28 0.08 60 1022.5